Other Public Products
Issued by NWS Grand Forks, ND

Home | Current Version | Previous Version | Graphics & Text | Print | Product List | Glossary On
Versions: 1 2 3 4 5 6 7 8 9 10 11 12 13 14 15 16 17 18 19 20 21 22 23 24 25 26 27 28 29 30 31 32 33 34 35 36 37 38 39 40 41 42 43 44 45 46 47 48 49 50
000
FPUS83 KFGF 070731
OPUFGF
PRAIRIE TO PINES WEATHER ROUNDUP
NATIONAL WEATHER SERVICE EASTERN NORTH DAKOTA/GRAND FORKS ND
200 AM CDT TUE JUL 07 2015

 **SATELLITE DATA USED TO AUGMENT SKY COVER AT AUTOMATED STATIONS**
 *****  WEATHER ACROSS EASTERN NORTH DAKOTA  *****

CITY           SKY/WX    TMP DP  RH WIND       PRES   REMARKS
GRAND FORKS    CLEAR     47  44  90 W5        30.16S
GRAND FORKS AF CLEAR     46  44  93 W3        30.17S
GRAND CITY NWS   N/A     46 N/A N/A MISG        N/A
BUXTON         NOT AVBL
DEVILS LAKE    CLEAR     55  45  67 S6        30.17S
FARGO          CLEAR     48  43  82 NW5       30.17R
WAHPETON ARPT  SUNNY     45  39  81 NW5       30.17S
$$

 *****  WEATHER ACROSS CENTRAL AND WESTERN NORTH DAKOTA  *****

CITY           SKY/WX    TMP DP  RH WIND       PRES   REMARKS
JAMESTOWN      CLEAR     52  48  86 CALM      30.19S
BISMARCK       CLEAR     50  48  93 E3        30.21R
MINOT          CLEAR     50  45  83 SW3       30.17S
MINOT AFB      CLEAR     46  46 100 SW6       30.16S
GARRISON         N/A     50  47  89 CALM      30.19R
WILLISTON      CLEAR     53  46  77 CALM      30.17S
DICKINSON      CLEAR     51  48  89 S8        30.19R FOG
HETTINGER      CLEAR     53  50  89 E8        30.21S FOG
$$

 *****  OTHER OBSERVATIONS NORTHEAST NORTH DAKOTA  *****

CITY           SKY/WX    TMP DP  RH WIND       PRES   REMARKS
WALHALLA       FAIR      46  46 100 MISG      30.16S
LANGDON        FAIR      41  41 100 S5        30.18R
CAVALIER       FAIR      48  46  93 W5        30.16S
GRAFTON        FAIR      52  52 100 W6        30.17S
CANDO          FAIR      45  45 100 SW5       30.19R
FORT TOTTEN      N/A     51  47  84 SE3       29.95
ROLLA          FAIR      45  45 100 S6        30.19R
RUGBY          NOT AVBL
 ***** THE ABOVE OBSERVATIONS ARE NON NWS ARE NOT QUALITY
        CONTROLLED AND MAY MIS-REPORT RAIN FOR SNOW...
$$

 *****  OTHER OBSERVATIONS SOUTHEAST NORTH DAKOTA *****

CITY           SKY/WX    TMP DP  RH WIND       PRES   REMARKS
COOPERSTOWN    NOT AVBL
VALLEY CITY    FAIR      46  45  93 CALM      30.20R
OAKES            N/A     48  48 100 CALM      30.19S
GWINNER          N/A     52  48  87 NW5       30.19S
SHEYENNE NWR     N/A     46  44  93 W2        29.95
BUFFALO        NOT AVBL
WYNDMERE         N/A     48  45  87 W2          N/A
 ***** THE ABOVE OBSERVATIONS ARE NON NWS ARE NOT QUALITY
       CONTROLLED AND MAY MIS-REPORT RAIN FOR SNOW...
$$

  *****  WEATHER ACROSS NORTHERN MINNESOTA  *****

CITY           SKY/WX    TMP DP  RH WIND       PRES   REMARKS
FLAG ISLAND    CLEAR     54  46  76 W12       30.11R
WARROAD        CLEAR     48  43  81 W5        30.15R
ROSEAU         CLEAR     48  45  87 W6        30.14F
HALLOCK        CLEAR     45  43  93 CALM      30.15S
THF RVR FALLS  CLEAR     46  45  93 CALM      30.16S
HALSTAD        NOT AVBL
FOSSTON        CLEAR     41  39  93 CALM      30.16S
BAUDETTE       CLEAR     47  44  90 W5        30.11S
WASKISH        CLOUDY    55  48  76 NW7       30.13S
CROOKSTON      CLEAR     46  46 100 CALM      30.18R
$$
  *****  WEATHER ACROSS CENTRAL AND WEST MINNESOTA  *****

CITY           SKY/WX    TMP DP  RH WIND       PRES   REMARKS
BEMIDJI        CLEAR     46  44  93 W6        30.14R
PARK RAPIDS    CLEAR     49  45  86 NW6       30.13R
WADENA         PTCLDY    46  43  87 NW6       30.14R
DETROIT LAKES  CLEAR     50  45  81 NW5       30.17S
MOORHEAD       CLEAR     45  43  93 NW5       30.18R
FERGUS FALLS   CLEAR     48  45  87 N3        30.17R
ELBOW LAKE     FAIR      53  48  83 N8        30.15S
MORRIS MN      CLEAR     50  48  93 NW7       30.14S
STAPLES        CLEAR     48  45  87 NW6       30.13R
WHEATON        CLEAR     48  46  93 NW6       30.18S
$$
  *****  WEATHER ELSEWHERE ACROSS MINNESOTA  *****

CITY           SKY/WX    TMP DP  RH WIND       PRES   REMARKS
DULUTH         CLOUDY    55  42  61 N12       30.05S
INTRNTL FALLS  CLEAR     46  44  93 NW3       30.09F
ELY            CLOUDY    52  45  76 CALM      30.06S
CLOQUET        CLOUDY    54  43  66 NW7       30.07R
BRAINERD       CLEAR     55  43  63 N8        30.10S
HIBBING        PTCLDY    49  42  77 NW7       30.08S
ALEXANDRIA     CLEAR     52  46  80 NW7       30.15R
SAINT CLOUD    CLEAR     52  47  83 NW6       30.09S
MINNEAPOLIS    CLEAR     58  48  69 N12       30.06R
$$

  *****  WEATHER ACROSS SOUTH DAKOTA  *****

CITY           SKY/WX    TMP DP  RH WIND       PRES   REMARKS
SIOUX FALLS    CLEAR     54  50  86 N5        30.15R
BROOKINGS      CLEAR     52  48  87 N6        30.17S
WATERTOWN      CLEAR     50  48  93 NE3       30.17R
HURON          CLEAR     56  53  90 CALM      30.16R
SISSETON         N/A     49  46  90 NW8       30.16S
ABERDEEN       CLEAR     52  50  93 CALM      30.18R
MITCHELL       CLEAR     59  56  89 CALM      30.16S
PIERRE         CLEAR     55  53  93 NE6       30.17R FOG
MOBRIDGE       CLEAR     56  54  93 E5        30.18S FOG
RAPID CITY     MOCLDY    59  57  93 E5        30.20S
$$

  *****  SOME WEATHER IN NEARBY STATES *****

CITY           SKY/WX    TMP DP  RH WIND       PRES   REMARKS
GLASGOW MT     CLEAR     57  47  69 E10       30.10F
GREAT FALLS MT CLEAR     53  49  86 SW6       30.09R
CHEYENNE WY    CLOUDY    54  53  97 SE12      30.31F FOG
SCOTTSBLUFF NE CLOUDY    63  55  75 SE7       30.24S HAZE
OMAHA NE       CLEAR     61  55  81 N10       30.07S
DES MOINES IA  MOCLDY    66  58  75 N13       30.00S HAZE
DAVENPORT IA   CLOUDY    64  58  80 N16       29.90R HAZE
CHICAGO IL     CLOUDY    71  69  93 SW8       29.83S
EAU CLAIRE WI  MOCLDY    58  50  75 N8        30.00R
LA CROSSE WI   CLOUDY    60  58  92 N3        29.98R FOG
$$

  *****  SOME NATIONAL WEATHER *****

CITY           SKY/WX    TMP DP  RH WIND       PRES   REMARKS
LA GUARDIA NY  CLOUDY    75  72  88 SE8       30.05F
RALEIGH NC     PTCLDY    72  66  81 CALM      30.09R
ATLANTA GA     CLEAR     72  68  87 W5        30.14S
NEW ORLEANS LA CLOUDY    82  76  81 S5        30.11S
OKLAHOMA CITY  LGT RAIN  71  71 100 S5        29.94F
ALBUQUERQUE NM LGT RAIN  66  60  81 E14       30.23R
SALT LAKE CITY MOCLDY    74  55  51 S10       30.06R
LOS ANGELES CA CLOUDY    64  60  87 S5        30.01F
BOISE ID       PTCLDY    77  48  35 SE3       29.96S
SEATTLE WA     PTCLDY    64  53  67 SW6       30.02R
$$

*** WEATHER ACROSS MANITOBA...SASKATCHEWAN AND ONTARIO ***
                ***ONTARIO***

CITY           SKY/WX    TMP DP  RH WIND       PRES   REMARKS
GERALDTON      CLOUDY    50  45  81 NW10      29.93F
THUNDER BAY    MOCLDY    52  46  82 W6        29.99R
SIOUX LOOKOUT  PTCLDY    43  43 100 CALM      30.06S
TORONTO        PTCLDY    68  59  73 W7        29.92S
BIG TROUT LK   MOCLDY    52  46  82 W7        29.89S
PICKLE LAKE    NOT AVBL
DRYDEN         MOCLDY    50  46  87 W8        30.08R
KENORA         PTCLDY    54  41  62 W7        30.10S
$$
                *** MANITOBA***

CITY           SKY/WX    TMP DP  RH WIND       PRES   REMARKS
BRANDON        CLEAR     45  43  93 W5        30.14S
DAUPHIN        CLEAR     50  43  76 SW8       30.10S
ISLAND LAKE    PTCLDY    59  46  63 W9        29.97S
PILOT MOUND      N/A     43  43 100 SW3         N/A
THE PAS        CLEAR     59  46  63 SW7       29.98F SMOKE
THOMPSON       CLEAR     59  46  63 SW9       29.86F SMOKE
WINNIPEG       CLEAR     46  43  87 W8        30.14S
LYNN LAKE      HAZE      61  45  55 SW9       29.78F VSB 1
CHURCHILL      MOCLDY    55  50  82 SW8       29.72F
GILLAM         CLEAR     55  50  82 SW9       29.81F
$$
                ***SASKATCHEWAN***

CITY           SKY/WX    TMP DP  RH WIND       PRES   REMARKS
ESTEVAN        PTCLDY    46  43  87 S7        30.16S
KINDERSLEY     MOCLDY    54  45  71 S7        30.04F
LLOYDMINSTER   CLEAR     52  46  82 S8        30.02F
PRINCE ALBERT  MOCLDY    46  45  93 SW3       30.01F
REGINA         PTCLDY    48  43  81 SE8       30.12S



USA.gov is the U.S. government's official web portal to all federal, state and local government web resources and services.